Regional Weather Roundup
Issued by NWS

Home | Current Version | Previous Version | Text Only | Print | Product List | Glossary On
Versions: 1 2 3 4 5 6 7 8 9 10 11 12 13 14 15 16 17 18 19 20 21 22 23 24 25 26 27 28 29 30 31 32 33 34 35 36 37 38 39 40 41 42 43 44 45 46 47 48 49 50
000
ASUS43 KFSD 202102
RWRSD

WEATHER ROUNDUP FOR SOUTH DAKOTA
NATIONAL WEATHER SERVICE SIOUX FALLS SD
400 PM CDT SUN APR 20 2014

NOTE: "FAIR" INDICATES FEW OR NO CLOUDS BELOW 12,000 FEET WITH NO
SIGNIFICANT WEATHER AND/OR OBSTRUCTIONS TO VISIBILITY.


SDZ001>005-009-010-012>017-202200-
NORTHWEST AND NORTH CENTRAL SOUTH DAKOTA

CITY           SKY/WX    TMP DP  RH WIND       PRES   REMARKS
FAITH            N/A     73  40  30 W10       29.90F
MOBRIDGE       MOSUNNY   76  27  16 SW16      29.86F
$$

SDZ012>016-024>037-041>051-057-063-072>074-202200-
SOUTHWEST AND SOUTH CENTRAL SOUTH DAKOTA

CITY           SKY/WX    TMP DP  RH WIND       PRES   REMARKS
RAPID CTY ARPT PTSUNNY   69  36  29 NW31G37   29.94S
PIERRE         SUNNY     79  37  22 S14       29.85F
CUSTER         PTSUNNY   64  36  35 NE14G21   30.02R
ELLSWORTH AFB  PTSUNNY   67  33  28 N26G36    29.95S
PHILIP         SUNNY     79  44  28 VRB5      29.85F
PINE RIDGE     SUNNY     76  29  17 W14       29.91F
WINNER         FAIR      82  42  24 S13       29.88F
$$

SDZ004>011-016>023-039-040-202200-
NORTHEAST SOUTH DAKOTA

CITY           SKY/WX    TMP DP  RH WIND       PRES   REMARKS
ABERDEEN       PTSUNNY   76  27  16 S12G22    29.90F
WATERTOWN      SUNNY     73  32  22 SE10      29.94F
SISSETON         N/A     74  29  19 S12       29.92F
$$

SDZ017-020-022-023-036>040-048>070-202200-
SOUTHEAST SOUTH DAKOTA

CITY           SKY/WX    TMP DP  RH WIND       PRES   REMARKS
SIOUX FALLS    MOSUNNY   79  46  31 E12       29.90F
HURON          MOSUNNY   77  28  16 SE10G17   29.88F
CHAMBERLAIN      N/A     81  36  19 S13       29.88F
MITCHELL       SUNNY     81  42  25 S10G17    29.88F
YANKTON        MOSUNNY   77  50  38 SE5       29.91F
$$

ABBREVIATIONS USED IN REMARKS
   TC - TEMPERATURE IN CELSIUS
  WCI - WIND CHILL INDEX
   HX - HEAT INDEX
  VSB - VISIBILITY




USA.gov is the U.S. government's official web portal to all federal, state and local government web resources and services.